This is the latest recevied weather packets stored in our database for station/object M0JUI-1. If no packets are shown the sender has not sent any weather packets the latest 10 day(s).
| Time | Temp. | Humidity | Pressure | Rain* | Wind** | Luminosity | Snow |
|---|---|---|---|---|---|---|---|
| 1788339129 | 14.44° C | 19% | 1017.9 hPa | 1.02 mm | - | 58 W/m² | - |
| 1788338829 | 14.44° C | 19% | 1018 hPa | 0.76 mm | - | 78 W/m² | - |
| 1788338517 | 14.44° C | 19% | 1018 hPa | 1.02 mm | - | 99 W/m² | - |
| 1788338217 | 13.89° C | 19% | 1017.8 hPa | 0.76 mm | - | 68 W/m² | - |
| 1788337917 | 13.89° C | 19% | 1018 hPa | 0.76 mm | - | 73 W/m² | - |
| 1788337617 | 13.89° C | 19% | 1018 hPa | 1.02 mm | - | 50 W/m² | - |
| 1788337318 | 13.89° C | 19% | 1018 hPa | 0.76 mm | - | 68 W/m² | - |
| 1788337017 | 13.89° C | 19% | 1018 hPa | 1.02 mm | - | 76 W/m² | - |
| 1788336717 | 13.89° C | 19% | 1018.2 hPa | 1.02 mm | - | 95 W/m² | - |
| 1788336417 | 13.89° C | 19% | 1018.3 hPa | 1.02 mm | - | 94 W/m² | - |
| 1788336118 | 13.89° C | 19% | 1018.3 hPa | 0.76 mm | - | 54 W/m² | - |
| 1788335818 | 13.89° C | 18% | 1018.3 hPa | 1.02 mm | - | 60 W/m² | - |
| 1788335517 | 13.33° C | 18% | 1018.2 hPa | 1.02 mm | - | 48 W/m² | - |
| 1788335217 | 13.33° C | 18% | 1017.9 hPa | 1.02 mm | - | 29 W/m² | - |
| 1788334917 | 13.33° C | 18% | 1018 hPa | 1.02 mm | - | 36 W/m² | - |
| 1788334617 | 13.33° C | 18% | 1017.7 hPa | 1.02 mm | - | 49 W/m² | - |
| 1788334317 | 13.33° C | 18% | 1017.9 hPa | 1.02 mm | - | 33 W/m² | - |
| 1788334017 | 13.33° C | 18% | 1018.2 hPa | 0.76 mm | - | 23 W/m² | - |
| 1788333717 | 13.33° C | 18% | 1017.8 hPa | 0.76 mm | - | 26 W/m² | - |
| 1788333418 | 13.33° C | 18% | 1018 hPa | 0.76 mm | - | 26 W/m² | - |
| 1788333117 | 13.33° C | 17% | 1018.2 hPa | 0.76 mm | - | 28 W/m² | - |
| 1788332817 | 13.33° C | 17% | 1018 hPa | 0.76 mm | - | 29 W/m² | - |
| 1788332517 | 13.33° C | 17% | 1017.9 hPa | 1.02 mm | - | 23 W/m² | - |
| 1788332217 | 13.33° C | 17% | 1018 hPa | 0.76 mm | - | 23 W/m² | - |
| 1788331917 | 13.33° C | 17% | 1017.9 hPa | 0.76 mm | - | 24 W/m² | - |
* Rain latest hour (hover to see other rain measurements)
** Current wind speed in m/s (hover to see current wind gust speed)